Watertown, WI

9:20 PM CDT on September 28, 2016 (GMT -0500)
Watertown Municipal

Weather History for KRYV - March, 2014

Change the Weather History Date:

Sunday, March 2, 2014

  Actual Average Record
Temperature  
Mean Temperature 2 °F -  
Max Temperature 5 °F 38 °F 64 °F (1964)
Min Temperature -3 °F 20 °F -15 °F (1962)
Degree Days  
Heating Degree Days 64    
Moisture  
Dew Point -13 °F    
Average Humidity 51    
Maximum Humidity 68    
Minimum Humidity 38    
Precipitation  
Precipitation 0.00 in - - ()
Sea Level Pressure  
Sea Level Pressure 30.39 in    
Wind  
Wind Speed 9 mph (NW)    
Max Wind Speed 14 mph    
Max Gust Speed 18 mph    
Visibility 10 miles    
Events      
Averages and records for this station are not official NWS values.
T = Trace of Precipitation, MM = Missing Value Source: NWS Daily Summary

Daily Weather History Graph

Daily Weather History Graph

Search for Another Location

Airport or City:

Trip Planner

Search our weather history database for the weather conditions in past years. The results will help you decide how hot, cold, wet, or windy it might be!

Date:

Astronomy

Mar. 02, 2014 Rise Set
Actual Time 6:29 AM CST 5:45 PM CST
Civil Twilight 6:00 AM CST 6:13 PM CST
Nautical Twilight 5:27 AM CST 6:46 PM CST
Astronomical Twilight 4:54 AM CST 7:19 PM CST
Moon 6:57 AM CST (3/2) 7:45 PM CST (3/2)
Length of Visible Light 12h 13m
Length of Day
11h 16m
Waxing Crescent, 3% of the Moon is Illuminated
Mar 2
Waxing Crescent
Mar 8
First Quarter
Mar 16
Full
Mar 23
Last Quarter
Mar 30
New

Hourly Weather History & Observations

Time (CST) Temp. Windchill Dew Point Humidity Pressure Visibility Wind Dir Wind Speed Gust Speed Precip Events Conditions
12:15 AM 5.5 °F -10.2 °F -2.9 °F 68% 30.36 in 10.0 mi NNW 11.5 mph - N/A   Overcast
12:35 AM 5.2 °F -9.8 °F -3.5 °F 68% 30.35 in 10.0 mi NNW 10.4 mph - N/A   Overcast
12:55 AM 5.0 °F -10.8 °F -4.0 °F 66% 30.36 in 10.0 mi NW 11.5 mph - N/A   Overcast
1:15 AM 4.6 °F -10.4 °F -6.0 °F 62% 30.36 in 10.0 mi NW 10.4 mph - N/A   Overcast
1:35 AM 3.9 °F -11.3 °F -6.3 °F 62% 30.35 in 10.0 mi NNW 10.4 mph - N/A   Overcast
1:55 AM 3.6 °F -12.6 °F -6.7 °F 62% 30.36 in 10.0 mi NNW 11.5 mph 16.1 mph N/A   Overcast
2:15 AM 3.6 °F -11.8 °F -6.3 °F 64% 30.36 in 10.0 mi NNW 10.4 mph - N/A   Overcast
2:35 AM 2.8 °F -12.7 °F -7.6 °F 62% 30.36 in 10.0 mi NNW 10.4 mph - N/A   Overcast
2:55 AM 2.8 °F -11.7 °F -7.2 °F 63% 30.36 in 10.0 mi NW 9.2 mph - N/A   Overcast
3:15 AM 2.3 °F -12.4 °F -7.6 °F 63% 30.35 in 10.0 mi NNW 9.2 mph 17.3 mph N/A   Overcast
3:35 AM 2.3 °F -12.4 °F -7.8 °F 63% 30.36 in 10.0 mi NW 9.2 mph - N/A   Overcast
3:55 AM 1.8 °F -13.1 °F -8.5 °F 62% 30.36 in 10.0 mi NNW 9.2 mph - N/A   Overcast
4:15 AM 1.4 °F -12.5 °F -9.4 °F 61% 30.35 in 10.0 mi NNW 8.1 mph - N/A   Overcast
4:35 AM 1.2 °F -14.7 °F -9.8 °F 60% 30.38 in 10.0 mi NW 10.4 mph - N/A   Overcast
4:55 AM 0.9 °F -14.2 °F -10.3 °F 59% 30.37 in 10.0 mi NNW 9.2 mph - N/A   Overcast
5:15 AM 0.7 °F -15.4 °F -10.1 °F 60% 30.39 in 10.0 mi NW 10.4 mph - N/A   Overcast
5:35 AM 0.5 °F -15.6 °F -10.3 °F 60% 30.37 in 10.0 mi NNW 10.4 mph - N/A   Overcast
5:55 AM 0.3 °F -17.5 °F -10.3 °F 61% 30.37 in 10.0 mi NNW 12.7 mph 17.3 mph N/A   Overcast
6:15 AM -0.2 °F -14.4 °F -10.5 °F 62% 30.37 in 10.0 mi NNW 8.1 mph 16.1 mph N/A   Mostly Cloudy
6:35 AM -0.8 °F -12.5 °F -10.7 °F 63% 30.38 in 10.0 mi NNW 5.8 mph - N/A   Scattered Clouds
6:55 AM -1.1 °F -12.9 °F -11.0 °F 63% 30.37 in 10.0 mi NW 5.8 mph - N/A   Scattered Clouds
7:15 AM -0.9 °F -14.1 °F -11.2 °F 62% 30.38 in 10.0 mi NW 6.9 mph - N/A   Mostly Cloudy
7:35 AM -0.8 °F -15.1 °F -11.2 °F 61% 30.40 in 10.0 mi NW 8.1 mph - N/A   Overcast
7:55 AM -0.4 °F -18.4 °F -11.4 °F 60% 30.40 in 10.0 mi NNW 12.7 mph - N/A   Overcast
8:15 AM -0.8 °F -18.0 °F -12.6 °F 57% 30.39 in 10.0 mi North 11.5 mph 17.3 mph N/A   Mostly Cloudy
8:35 AM -0.4 °F -19.2 °F -13.5 °F 54% 30.39 in 10.0 mi North 13.8 mph 18.4 mph N/A   Clear
8:55 AM 0.5 °F -16.5 °F -13.0 °F 53% 30.41 in 10.0 mi NNW 11.5 mph - N/A   Clear
9:15 AM 0.5 °F -16.5 °F -13.2 °F 53% 30.41 in 10.0 mi North 11.5 mph - N/A   Clear
9:35 AM 1.2 °F -15.6 °F -13.0 °F 51% 30.41 in 10.0 mi NNW 11.5 mph - N/A   Clear
9:55 AM 1.2 °F -14.7 °F -13.2 °F 51% 30.42 in 10.0 mi NNW 10.4 mph 18.4 mph N/A   Clear
10:15 AM 1.4 °F -16.1 °F -13.0 °F 51% 30.41 in 10.0 mi NNW 12.7 mph 17.3 mph N/A   Clear
10:35 AM 1.9 °F -12.9 °F -12.1 °F 52% 30.41 in 10.0 mi NW 9.2 mph - N/A   Clear
10:55 AM 1.9 °F -16.2 °F -12.8 °F 50% 30.42 in 10.0 mi NNW 13.8 mph - N/A   Clear
11:15 AM 2.1 °F -12.6 °F -13.0 °F 49% 30.43 in 10.0 mi WNW 9.2 mph - N/A   Clear
11:35 AM 2.3 °F -15.0 °F -13.9 °F 47% 30.42 in 10.0 mi NNW 12.7 mph 18.4 mph N/A   Clear
11:55 AM 2.8 °F -9.5 °F -13.0 °F 48% 30.42 in 10.0 mi NW 6.9 mph - N/A   Clear
12:15 PM 3.2 °F -12.2 °F -13.7 °F 45% 30.40 in 10.0 mi NW 10.4 mph - N/A   Clear
12:35 PM 3.6 °F -13.4 °F -14.1 °F 44% 30.40 in 10.0 mi NW 12.7 mph - N/A   Clear
12:55 PM 3.9 °F -12.2 °F -13.9 °F 44% 30.39 in 10.0 mi NW 11.5 mph - N/A   Clear
1:15 PM 4.1 °F -12.7 °F -13.5 °F 44% 30.38 in 10.0 mi NNW 12.7 mph - N/A   Clear
1:35 PM 4.8 °F -11.8 °F -13.0 °F 44% 30.37 in 10.0 mi NNW 12.7 mph - N/A   Clear
1:55 PM 4.5 °F -11.5 °F -14.8 °F 41% 30.36 in 10.0 mi NNW 11.5 mph - N/A   Clear
2:15 PM 4.8 °F -11.1 °F -14.8 °F 40% 30.37 in 10.0 mi NNW 11.5 mph - N/A   Clear
2:35 PM 5.2 °F -8.9 °F -13.5 °F 42% 30.37 in 10.0 mi NW 9.2 mph - N/A   Clear
2:55 PM 5.5 °F -9.3 °F -13.5 °F 41% 30.36 in 10.0 mi NNW 10.4 mph - N/A   Clear
3:15 PM 4.8 °F -10.2 °F -14.6 °F 40% 30.37 in 10.0 mi NW 10.4 mph - N/A   Clear
3:35 PM 5.0 °F -8.1 °F -14.8 °F 40% 30.36 in 10.0 mi NW 8.1 mph - N/A   Clear
3:55 PM 5.2 °F -6.7 °F -14.4 °F 40% 30.36 in 10.0 mi WNW 6.9 mph - N/A   Clear
4:15 PM 5.0 °F -8.1 °F -14.8 °F 40% 30.36 in 10.0 mi NW 8.1 mph - N/A   Clear
4:35 PM 5.0 °F -8.1 °F -15.2 °F 39% 30.37 in 10.0 mi NW 8.1 mph - N/A   Clear
4:55 PM 5.0 °F -6.9 °F -15.3 °F 39% 30.37 in 10.0 mi NW 6.9 mph - N/A   Clear
5:15 PM 5.0 °F -6.9 °F -15.7 °F 38% 30.38 in 10.0 mi NW 6.9 mph - N/A   Clear
5:35 PM 4.6 °F -2.5 °F -15.7 °F 39% 30.38 in 10.0 mi WNW 3.5 mph - N/A   Clear
5:55 PM 3.7 °F -3.6 °F -15.0 °F 42% 30.38 in 10.0 mi West 3.5 mph - N/A   Clear
6:15 PM 2.5 °F -7.0 °F -15.3 °F 43% 30.37 in 10.0 mi NW 4.6 mph - N/A   Clear
6:35 PM 2.5 °F -5.0 °F -15.2 °F 44% 30.39 in 10.0 mi NW 3.5 mph - N/A   Clear
6:55 PM 2.3 °F -8.8 °F -16.2 °F 42% 30.38 in 10.0 mi NW 5.8 mph - N/A   Clear
7:15 PM 1.9 °F -9.2 °F -17.0 °F 41% 30.37 in 10.0 mi NNW 5.8 mph - N/A   Clear
7:35 PM 1.4 °F -8.3 °F -16.8 °F 42% 30.38 in 10.0 mi NW 4.6 mph - N/A   Clear
7:55 PM 1.4 °F - -16.1 °F 44% 30.39 in 10.0 mi Calm Calm - N/A   Clear
8:15 PM 0.3 °F -9.5 °F -15.9 °F 47% 30.38 in 10.0 mi NW 4.6 mph - N/A   Clear
8:35 PM 0.5 °F -9.3 °F -15.3 °F 47% 30.39 in 10.0 mi NW 4.6 mph - N/A   Clear
8:55 PM -0.0 °F -9.9 °F -15.2 °F 49% 30.39 in 10.0 mi WNW 4.6 mph - N/A   Clear
9:15 PM -0.4 °F - -15.7 °F 49% 30.41 in 10.0 mi Calm Calm - N/A   Clear
9:35 PM -0.4 °F -8.3 °F -16.6 °F 46% 30.42 in 10.0 mi WNW 3.5 mph - N/A   Clear
9:55 PM -0.9 °F - -16.2 °F 48% 30.42 in 10.0 mi Calm Calm - N/A   Clear
10:15 PM -1.3 °F - -16.4 °F 49% 30.43 in 10.0 mi Calm Calm - N/A   Clear
10:35 PM -1.3 °F - -16.4 °F 49% 30.44 in 10.0 mi Calm Calm - N/A   Clear
10:55 PM -2.4 °F -15.8 °F -17.3 °F 49% 30.44 in 10.0 mi NW 6.9 mph - N/A   Clear
11:15 PM -2.6 °F -17.3 °F -17.9 °F 48% 30.44 in 10.0 mi NNW 8.1 mph - N/A   Clear
11:35 PM -2.9 °F -15.0 °F -17.9 °F 49% 30.43 in 10.0 mi NNW 5.8 mph - N/A   Clear
11:55 PM -3.3 °F -16.9 °F -17.9 °F 50% 30.44 in 10.0 mi NW 6.9 mph - N/A   Clear